Location: Brookview Estates
(36.0476°N, 86.6931°W)
Time: 14:07:20
(UTC+00:00)

Cosmos 1674 - Pass Details

Date: 30 March 2020
Orbit: 495 x 517 km, 82.5° (Epoch: 03 June)

Event Time Altitude Azimuth Distance (km) Brightness Sun altitude
Rises 00:44:54 0° 355° (N) 2,608 6.5 -8.5°
Reaches altitude 10° 00:47:02 10° 357° (N) 1,715 5.5 -8.9°
Maximum altitude 00:50:47 73° 82° (E) 525 2.5 -9.6°
Drops below altitude 10° 00:54:29 10° 168° (SSE) 1,692 5.1 -10.4°
Sets 00:56:35 0° 170° (S) 2,568 6.0 -10.8°
